Time,TemperatureF,DewpointF,PressureIn,WindDirection,WindDirectionDegrees,WindSpeedMPH,WindSpeedGustMPH,Humidity,HourlyPrecipIn,Conditions,Clouds,dailyrainin,SolarRadiationWatts/m^2,SoftwareType,DateUTC
2013-02-15 00:02:00,34.0,23.0,-100.00,SSW,196,4.0,7.0,63,0.00,,,0.13,0.000000,,2013-02-15 05:02:00,
2013-02-15 00:10:00,35.0,24.0,-100.00,SSW,209,7.0,12.0,63,0.00,,,0.13,0.000000,,2013-02-15 05:10:00,
2013-02-15 00:42:00,35.0,24.0,-100.00,SSW,209,7.0,12.0,63,0.00,,,0.13,0.000000,,2013-02-15 05:42:00,
2013-02-15 00:52:00,35.0,24.0,-100.00,SSW,209,7.0,12.0,63,0.00,,,0.13,0.000000,,2013-02-15 05:52:00,
2013-02-15 01:02:00,35.0,24.0,-100.00,SSW,209,7.0,12.0,63,0.00,,,0.13,0.000000,,2013-02-15 06:02:00,
2013-02-15 01:10:00,36.0,23.0,-100.00,SSW,202,7.0,13.0,59,0.00,,,0.13,0.000000,,2013-02-15 06:10:00,
2013-02-15 01:32:00,36.0,23.0,-100.00,SSW,202,7.0,13.0,59,0.00,,,0.13,0.000000,,2013-02-15 06:32:00,
2013-02-15 01:42:00,36.0,23.0,-100.00,SSW,202,7.0,13.0,59,0.00,,,0.13,0.000000,,2013-02-15 06:42:00,
2013-02-15 01:52:00,36.0,23.0,-100.00,SSW,202,7.0,13.0,59,0.00,,,0.13,0.000000,,2013-02-15 06:52:00,
2013-02-15 02:01:00,36.0,23.0,-100.00,SSW,202,7.0,13.0,59,0.00,,,0.13,0.000000,,2013-02-15 07:01:00,
2013-02-15 02:10:00,35.0,26.0,-100.00,SSW,210,10.0,18.0,70,0.00,,,0.13,0.000000,,2013-02-15 07:10:00,
2013-02-15 02:42:00,35.0,26.0,-100.00,SSW,210,10.0,18.0,70,0.00,,,0.13,0.000000,,2013-02-15 07:42:00,
2013-02-15 02:52:00,35.0,26.0,-100.00,SSW,210,10.0,18.0,70,0.00,,,0.13,0.000000,,2013-02-15 07:52:00,
2013-02-15 03:01:00,35.0,26.0,-100.00,SSW,210,10.0,18.0,70,0.00,,,0.13,0.000000,,2013-02-15 08:01:00,
2013-02-15 03:10:00,35.0,27.0,-100.00,SSW,212,10.0,16.0,71,0.00,,,0.13,0.000000,,2013-02-15 08:10:00,
2013-02-15 03:32:00,35.0,27.0,-100.00,SSW,212,10.0,16.0,71,0.00,,,0.13,0.000000,,2013-02-15 08:32:00,
2013-02-15 03:42:00,35.0,27.0,-100.00,SSW,212,10.0,16.0,71,0.00,,,0.13,0.000000,,2013-02-15 08:42:00,
2013-02-15 03:53:00,35.0,27.0,-100.00,SSW,212,10.0,16.0,71,0.00,,,0.13,0.000000,,2013-02-15 08:53:00,
2013-02-15 04:02:00,35.0,27.0,-100.00,SSW,212,10.0,16.0,71,0.00,,,0.13,0.000000,,2013-02-15 09:02:00,
2013-02-15 04:10:00,34.0,26.0,-100.00,SW,218,6.0,14.0,73,0.00,,,0.13,0.000000,,2013-02-15 09:10:00,
2013-02-15 04:42:00,34.0,26.0,-100.00,SW,218,6.0,14.0,73,0.00,,,0.13,0.000000,,2013-02-15 09:42:00,
2013-02-15 04:52:00,34.0,26.0,-100.00,SW,218,6.0,14.0,73,0.00,,,0.13,0.000000,,2013-02-15 09:52:00,
2013-02-15 05:01:00,34.0,26.0,-100.00,SW,218,6.0,14.0,73,0.00,,,0.13,0.000000,,2013-02-15 10:01:00,
2013-02-15 05:10:00,33.0,26.0,-100.00,SSW,207,6.0,11.0,75,0.00,,,0.13,0.000000,,2013-02-15 10:10:00,
2013-02-15 05:42:00,33.0,26.0,-100.00,SSW,207,6.0,11.0,75,0.00,,,0.13,0.000000,,2013-02-15 10:42:00,
2013-02-15 05:52:00,33.0,26.0,-100.00,SSW,207,6.0,11.0,75,0.00,,,0.13,0.000000,,2013-02-15 10:52:00,
2013-02-15 06:01:00,33.0,26.0,-100.00,SSW,207,6.0,11.0,75,0.00,,,0.13,0.000000,,2013-02-15 11:01:00,
2013-02-15 06:10:00,33.0,27.0,-100.00,SW,225,6.0,11.0,79,0.00,,,0.13,0.000000,,2013-02-15 11:10:00,
2013-02-15 06:32:00,33.0,27.0,-100.00,SW,225,6.0,11.0,79,0.00,,,0.13,0.000000,,2013-02-15 11:32:00,
2013-02-15 06:42:00,33.0,27.0,-100.00,SW,225,6.0,11.0,79,0.00,,,0.13,0.000000,,2013-02-15 11:42:00,
2013-02-15 06:52:00,33.0,27.0,-100.00,SW,225,6.0,11.0,79,0.00,,,0.13,0.000000,,2013-02-15 11:52:00,
2013-02-15 07:02:00,33.0,27.0,-100.00,SW,225,6.0,11.0,79,0.00,,,0.13,0.000000,,2013-02-15 12:02:00,
2013-02-15 07:10:00,33.0,28.0,-100.00,SW,227,6.0,11.0,83,0.00,,,0.13,5.000000,,2013-02-15 12:10:00,
2013-02-15 07:32:00,33.0,28.0,-100.00,SW,227,6.0,11.0,83,0.00,,,0.13,5.000000,,2013-02-15 12:32:00,
2013-02-15 07:42:00,33.0,28.0,-100.00,SW,227,6.0,11.0,83,0.00,,,0.13,5.000000,,2013-02-15 12:42:00,
2013-02-15 07:52:00,33.0,28.0,-100.00,SW,227,6.0,11.0,83,0.00,,,0.13,5.000000,,2013-02-15 12:52:00,
2013-02-15 08:02:00,33.0,28.0,-100.00,SW,227,6.0,11.0,83,0.00,,,0.13,5.000000,,2013-02-15 13:02:00,
2013-02-15 08:10:00,35.0,29.0,-100.00,SW,230,5.0,10.0,80,0.00,,,-99.99,85.000000,,2013-02-15 13:10:00,
2013-02-15 08:42:00,35.0,29.0,-100.00,SW,230,5.0,10.0,80,0.00,,,-99.99,85.000000,,2013-02-15 13:42:00,
2013-02-15 08:52:00,35.0,29.0,-100.00,SW,230,5.0,10.0,80,0.00,,,-99.99,85.000000,,2013-02-15 13:52:00,
2013-02-15 09:01:00,35.0,29.0,-100.00,SW,230,5.0,10.0,80,0.00,,,-99.99,85.000000,,2013-02-15 14:01:00,
2013-02-15 09:10:00,38.0,30.0,-100.00,West,260,8.0,12.0,73,0.00,,,0.05,271.000000,,2013-02-15 14:10:00,
2013-02-15 09:42:00,38.0,30.0,-100.00,West,260,8.0,12.0,73,0.00,,,0.05,271.000000,,2013-02-15 14:42:00,
2013-02-15 09:52:00,38.0,30.0,-100.00,West,260,8.0,12.0,73,0.00,,,0.05,271.000000,,2013-02-15 14:52:00,
2013-02-15 10:02:00,38.0,30.0,-100.00,West,260,8.0,12.0,73,0.00,,,0.05,271.000000,,2013-02-15 15:02:00,
2013-02-15 10:10:00,41.0,31.0,-100.00,WSW,257,8.0,17.0,68,0.00,,,0.01,482.000000,,2013-02-15 15:10:00,
2013-02-15 10:32:00,41.0,31.0,-100.00,WSW,257,8.0,17.0,68,0.00,,,0.01,482.000000,,2013-02-15 15:32:00,
2013-02-15 10:42:00,41.0,31.0,-100.00,WSW,257,8.0,17.0,68,0.00,,,0.01,482.000000,,2013-02-15 15:42:00,
2013-02-15 10:52:00,41.0,31.0,-100.00,WSW,257,8.0,17.0,68,0.00,,,0.01,482.000000,,2013-02-15 15:52:00,
2013-02-15 11:02:00,41.0,31.0,-100.00,WSW,257,8.0,17.0,68,0.00,,,0.01,482.000000,,2013-02-15 16:02:00,
2013-02-15 11:10:00,45.0,31.0,-100.00,WSW,248,7.0,15.0,58,0.00,,,0.00,643.000000,,2013-02-15 16:10:00,
2013-02-15 11:32:00,45.0,31.0,-100.00,WSW,248,7.0,15.0,58,0.00,,,0.00,643.000000,,2013-02-15 16:32:00,
2013-02-15 11:43:00,45.0,31.0,-100.00,WSW,248,7.0,15.0,58,0.00,,,0.00,643.000000,,2013-02-15 16:43:00,
2013-02-15 11:52:00,45.0,31.0,-100.00,WSW,248,7.0,15.0,58,0.00,,,0.00,643.000000,,2013-02-15 16:52:00,
2013-02-15 12:01:00,45.0,31.0,-100.00,WSW,248,7.0,15.0,58,0.00,,,0.00,643.000000,,2013-02-15 17:01:00,
2013-02-15 12:10:00,49.0,32.0,-100.00,WSW,255,10.0,19.0,51,0.00,,,0.00,735.000000,,2013-02-15 17:10:00,
2013-02-15 12:32:00,49.0,32.0,-100.00,WSW,255,10.0,19.0,51,0.00,,,0.00,735.000000,,2013-02-15 17:32:00,
2013-02-15 12:42:00,49.0,32.0,-100.00,WSW,255,10.0,19.0,51,0.00,,,0.00,735.000000,,2013-02-15 17:42:00,
2013-02-15 12:52:00,49.0,32.0,-100.00,WSW,255,10.0,19.0,51,0.00,,,0.00,735.000000,,2013-02-15 17:52:00,
2013-02-15 13:02:00,49.0,32.0,-100.00,WSW,255,10.0,19.0,51,0.00,,,0.00,735.000000,,2013-02-15 18:02:00,
2013-02-15 13:10:00,50.0,31.0,-100.00,WSW,256,10.0,24.0,47,0.00,,,0.00,746.000000,,2013-02-15 18:10:00,
2013-02-15 13:42:00,50.0,31.0,-100.00,WSW,256,10.0,24.0,47,0.00,,,0.00,746.000000,,2013-02-15 18:42:00,
2013-02-15 13:53:00,50.0,31.0,-100.00,WSW,256,10.0,24.0,47,0.00,,,0.00,746.000000,,2013-02-15 18:53:00,
2013-02-15 14:02:00,50.0,31.0,-100.00,WSW,256,10.0,24.0,47,0.00,,,0.00,746.000000,,2013-02-15 19:02:00,
2013-02-15 14:10:00,51.0,30.0,-100.00,West,263,9.0,18.0,44,0.00,,,0.00,682.000000,,2013-02-15 19:10:00,
2013-02-15 14:42:00,51.0,30.0,-100.00,West,263,9.0,18.0,44,0.00,,,0.00,682.000000,,2013-02-15 19:42:00,
2013-02-15 14:52:00,51.0,30.0,-100.00,West,263,9.0,18.0,44,0.00,,,0.00,682.000000,,2013-02-15 19:52:00,
2013-02-15 15:02:00,51.0,30.0,-100.00,West,263,9.0,18.0,44,0.00,,,0.00,682.000000,,2013-02-15 20:02:00,
2013-02-15 15:10:00,51.0,29.0,-100.00,WSW,253,8.0,20.0,43,0.00,,,0.00,445.000000,,2013-02-15 20:10:00,
2013-02-15 15:42:00,51.0,29.0,-100.00,WSW,253,8.0,20.0,43,0.00,,,0.00,445.000000,,2013-02-15 20:42:00,
2013-02-15 15:52:00,51.0,29.0,-100.00,WSW,253,8.0,20.0,43,0.00,,,0.00,445.000000,,2013-02-15 20:52:00,
2013-02-15 16:02:00,51.0,29.0,-100.00,WSW,253,8.0,20.0,43,0.00,,,0.00,445.000000,,2013-02-15 21:02:00,
2013-02-15 16:10:00,49.0,24.0,-100.00,West,271,7.0,19.0,37,0.00,,,0.00,334.000000,,2013-02-15 21:10:00,
2013-02-15 16:42:00,49.0,24.0,-100.00,West,271,7.0,19.0,37,0.00,,,0.00,334.000000,,2013-02-15 21:42:00,
2013-02-15 16:52:00,49.0,24.0,-100.00,West,271,7.0,19.0,37,0.00,,,0.00,334.000000,,2013-02-15 21:52:00,
2013-02-15 17:02:00,49.0,24.0,-100.00,West,271,7.0,19.0,37,0.00,,,0.00,334.000000,,2013-02-15 22:02:00,
2013-02-15 17:10:00,46.0,25.0,-100.00,West,280,5.0,13.0,44,0.00,,,0.00,126.000000,,2013-02-15 22:10:00,
2013-02-15 17:42:00,46.0,25.0,-100.00,West,280,5.0,13.0,44,0.00,,,0.00,126.000000,,2013-02-15 22:42:00,
2013-02-15 17:52:00,46.0,25.0,-100.00,West,280,5.0,13.0,44,0.00,,,0.00,126.000000,,2013-02-15 22:52:00,
2013-02-15 18:02:00,46.0,25.0,-100.00,West,280,5.0,13.0,44,0.00,,,0.00,126.000000,,2013-02-15 23:02:00,
2013-02-15 18:10:00,44.0,26.0,-100.00,WNW,298,4.0,10.0,49,0.00,,,0.00,6.000000,,2013-02-15 23:10:00,
2013-02-15 18:32:00,44.0,26.0,-100.00,WNW,298,4.0,10.0,49,0.00,,,0.00,6.000000,,2013-02-15 23:32:00,
2013-02-15 18:42:00,44.0,26.0,-100.00,WNW,298,4.0,10.0,49,0.00,,,0.00,6.000000,,2013-02-15 23:42:00,
2013-02-15 18:52:00,44.0,26.0,-100.00,WNW,298,4.0,10.0,49,0.00,,,0.00,6.000000,,2013-02-15 23:52:00,
2013-02-15 19:02:00,44.0,26.0,-100.00,WNW,298,4.0,10.0,49,0.00,,,0.00,6.000000,,2013-02-16 00:02:00,
2013-02-15 19:10:00,42.0,23.0,-100.00,WNW,291,3.0,8.0,47,0.00,,,0.00,0.000000,,2013-02-16 00:10:00,
2013-02-15 19:32:00,42.0,23.0,-100.00,WNW,291,3.0,8.0,47,0.00,,,0.00,0.000000,,2013-02-16 00:32:00,
2013-02-15 19:42:00,42.0,23.0,-100.00,WNW,291,3.0,8.0,47,0.00,,,0.00,0.000000,,2013-02-16 00:42:00,
2013-02-15 19:52:00,42.0,23.0,-100.00,WNW,291,3.0,8.0,47,0.00,,,0.00,0.000000,,2013-02-16 00:52:00,
2013-02-15 20:02:00,42.0,23.0,-100.00,WNW,291,3.0,8.0,47,0.00,,,0.00,0.000000,,2013-02-16 01:02:00,
2013-02-15 20:10:00,42.0,22.0,-100.00,NW,313,3.0,9.0,45,0.00,,,-99.99,0.000000,,2013-02-16 01:10:00,
2013-02-15 20:32:00,42.0,22.0,-100.00,NW,313,3.0,9.0,45,0.00,,,-99.99,0.000000,,2013-02-16 01:32:00,
2013-02-15 20:42:00,42.0,22.0,-100.00,NW,313,3.0,9.0,45,0.00,,,-99.99,0.000000,,2013-02-16 01:42:00,
2013-02-15 20:52:00,42.0,22.0,-100.00,NW,313,3.0,9.0,45,0.00,,,-99.99,0.000000,,2013-02-16 01:52:00,
2013-02-15 21:01:00,42.0,22.0,-100.00,NW,313,3.0,9.0,45,0.00,,,-99.99,0.000000,,2013-02-16 02:01:00,
2013-02-15 21:10:00,41.0,23.0,-100.00,WNW,302,6.0,12.0,49,0.00,,,0.00,0.000000,,2013-02-16 02:10:00,
2013-02-15 21:42:00,41.0,23.0,-100.00,WNW,302,6.0,12.0,49,0.00,,,0.00,0.000000,,2013-02-16 02:42:00,
2013-02-15 21:52:00,41.0,23.0,-100.00,WNW,302,6.0,12.0,49,0.00,,,0.00,0.000000,,2013-02-16 02:52:00,
2013-02-15 22:02:00,41.0,23.0,-100.00,WNW,302,6.0,12.0,49,0.00,,,0.00,0.000000,,2013-02-16 03:02:00,
2013-02-15 22:10:00,36.0,28.0,-100.00,WNW,296,6.0,14.0,73,0.00,,,0.00,0.000000,,2013-02-16 03:10:00,
2013-02-15 22:42:00,36.0,28.0,-100.00,WNW,296,6.0,14.0,73,0.00,,,0.00,0.000000,,2013-02-16 03:42:00,
2013-02-15 22:52:00,36.0,28.0,-100.00,WNW,296,6.0,14.0,73,0.00,,,0.00,0.000000,,2013-02-16 03:52:00,
2013-02-15 23:01:00,36.0,28.0,-100.00,WNW,296,6.0,14.0,73,0.00,,,0.00,0.000000,,2013-02-16 04:01:00,
2013-02-15 23:10:00,33.0,31.0,-100.00,WNW,292,3.0,9.0,94,0.01,,,0.01,0.000000,,2013-02-16 04:10:00,
2013-02-15 23:32:00,33.0,31.0,-100.00,WNW,292,3.0,9.0,94,0.01,,,0.01,0.000000,,2013-02-16 04:32:00,
2013-02-15 23:42:00,33.0,31.0,-100.00,WNW,292,3.0,9.0,94,0.01,,,0.01,0.000000,,2013-02-16 04:42:00,
2013-02-15 23:52:00,33.0,31.0,-100.00,WNW,292,3.0,9.0,94,0.01,,,0.01,0.000000,,2013-02-16 04:52:00,